This is the latest recevied weather packets stored in our database for station/object KB2EAR-13. If no packets are shown the sender has not sent any weather packets the latest 1 day(s).
| Time | Temp. | Humidity | Pressure | Rain* | Wind** | Luminosity | Snow |
|---|---|---|---|---|---|---|---|
| 1777988117 | 20.56° C | 61% | 1012.4 hPa | 0 mm | 1.79 m/s, 270° | - | - |
| 1777987817 | 20.56° C | 63% | 1012.5 hPa | 0 mm | 1.34 m/s, 270° | - | - |
| 1777987517 | 20° C | 63% | 1012.5 hPa | 0 mm | 1.79 m/s, 248° | - | - |
| 1777987217 | 20° C | 63% | 1012.6 hPa | 0 mm | 1.79 m/s, 248° | - | - |
| 1777986917 | 20° C | 64% | 1012.3 hPa | 0 mm | 1.34 m/s, 270° | - | - |
| 1777986835 | 19.44° C | 64% | 1012.4 hPa | 0 mm | 0.89 m/s, 270° | - | - |
| 1777986617 | 19.44° C | 64% | 1012.4 hPa | 0 mm | 0.89 m/s, 270° | - | - |
| 1777986317 | 19.44° C | 66% | 1012.3 hPa | 0 mm | 0.89 m/s, 270° | - | - |
| 1777986017 | 19.44° C | 66% | 1012.2 hPa | 0 mm | 1.34 m/s, 270° | - | - |
| 1777985717 | 18.89° C | 67% | 1012.3 hPa | 0 mm | 0.89 m/s, 293° | - | - |
| 1777985417 | 18.89° C | 67% | 1012.2 hPa | 0 mm | 1.34 m/s, 270° | - | - |
| 1777985117 | 18.33° C | 68% | 1012.2 hPa | 0 mm | 1.34 m/s, 248° | - | - |
| 1777984817 | 18.33° C | 68% | 1012.2 hPa | 0 mm | 1.34 m/s, 270° | - | - |
| 1777984517 | 17.78° C | 70% | 1012.1 hPa | 0 mm | 0.45 m/s, 248° | - | - |
| 1777984217 | 17.78° C | 71% | 1012.2 hPa | 0 mm | 1.34 m/s, 270° | - | - |
| 1777983917 | 17.78° C | 71% | 1012.2 hPa | 0 mm | 0.89 m/s, 248° | - | - |
| 1777983617 | 17.78° C | 71% | 1012.2 hPa | 0 mm | 0.89 m/s, 270° | - | - |
| 1777983317 | 17.22° C | 72% | 1012.3 hPa | 0 mm | 0.45 m/s, 248° | - | - |
| 1777983017 | 17.22° C | 72% | 1012.3 hPa | 0 mm | 0.45 m/s, 248° | - | - |
| 1777982417 | 16.67° C | 74% | 1012.2 hPa | 0 mm | 0.45 m/s, 248° | - | - |
| 1777975310 | 13.89° C | 80% | 1012 hPa | 0 mm | 0.45 m/s, 315° | - | - |
| 1777974616 | 13.89° C | 80% | 1011.5 hPa | 0 mm | 0.45 m/s, 270° | - | - |
| 1777974317 | 13.89° C | 80% | 1011.4 hPa | 0 mm | 0.45 m/s, 270° | - | - |
| 1777974016 | 13.89° C | 80% | 1011.2 hPa | 0 mm | 0.89 m/s, 270° | - | - |
| 1777973716 | 13.89° C | 80% | 1011.1 hPa | 0 mm | 0.45 m/s, 248° | - | - |
* Rain latest hour (hover to see other rain measurements)
** Current wind speed in m/s (hover to see current wind gust speed)